Location: Knowlton
(51.2333°N, 1.2667°E)
Time: 10:40:24
(UTC+00:00)

ARIANE 5 R/B - Pass Details

Date: 18 April 2021
Orbit: 620 x 656 km, 98.1° (Epoch: 02 May)

Event Time Altitude Azimuth Distance (km) Brightness Sun altitude
Exits shadow 20:09:19 15° 117° (ESE) 1,701 4.1 -11.0°
Maximum altitude 20:12:12 30° 64° (ENE) 1,145 3.7 -11.4°
Drops below altitude 10° 20:16:02 10° 4° (N) 2,023 5.6 -11.9°
Sets 20:18:25 0° 353° (N) 2,930 6.7 -12.2°
